Regional Weather Roundup
Issued by NWS Upton, NY

Current Version | Previous Version | Graphics & Text | Print | Product List | Glossary Off
Versions: 1 2 3 4 5 6 7 8 9 10 11 12 13 14 15 16 17 18 19 20 21 22 23 24 25 26 27 28 29 30 31 32 33 34 35 36 37 38 39 40 41 42 43 44 45 46 47 48 49 50

000
ASUS41 KOKX 290704
RWROKX

REGIONAL WEATHER ROUNDUP
NATIONAL WEATHER SERVICE NEW YORK NY
300 AM EDT FRI APR 29 2016

NOTE: "FAIR" INDICATES FEW OR NO CLOUDS BELOW 12,000 FEET WITH NO
SIGNIFICANT WEATHER AND/OR OBSTRUCTIONS TO VISIBILITY.

NYZ071-072-176-178-NJZ106-104-290800-
NEW YORK CITY METRO AREA


CITY           SKY/WX    TMP DP  RH WIND       PRES   REMARKS
CENTRAL PARK   CLOUDY    49  37  63 CALM      30.06F
LAGUARDIA APRT CLOUDY    50  36  58 E6        30.04F
KENNEDY INTL   CLOUDY    49  38  65 E5        30.06S
NEWARK/LIBERTY CLOUDY    49  38  65 E5        30.04F
BRNX BOT. GARD   N/A     48  34  57 E6        30.05F
TETERBORO      LGT RAIN  49  37  63 CALM      30.03F
$$

NYZ177-179-078>081-290800-
LONG ISLAND NEW YORK

CITY           SKY/WX    TMP DP  RH WIND       PRES   REMARKS
FARMINGDALE    CLOUDY    48  38  68 NE6       30.06R
ISLIP          CLOUDY    48  37  65 E6        30.05S
SHIRLEY        CLOUDY    47  37  68 CALM      30.07S
RIVERHEAD        N/A     46  39  76 CALM      30.06S
WESTHAMPTON    CLOUDY    44  36  73 NE5       30.08S
EAST HAMPTON   CLOUDY    46  36  69 NE3       30.07S
MONTAUK POINT    N/A     46  38  73 NE5       30.10R
$$

NYZ052-065-067-290800-
HUDSON VALLEY

CITY           SKY/WX    TMP DP  RH WIND       PRES   REMARKS
WHITE PLAINS   CLOUDY    46  38  73 E3        30.04S
NEWBURGH       NOT AVBL
MONTGOMERY     CLOUDY    47  41  80 SE3       30.03S
POUGHKEEPSIE   CLOUDY    50  39  66 CALM      30.04S
ALBANY         CLOUDY    39  19  44 N10       30.09S WCI  32
$$

NJZ001-105-106-008-010-013-015-019>022-104-290800-
NEW JERSEY

CITY           SKY/WX    TMP DP  RH WIND       PRES   REMARKS
NEWARK/LIBERTY CLOUDY    49  38  65 E5        30.04F
TETERBORO      LGT RAIN  49  37  63 CALM      30.03F
CALDWELL       CLOUDY    48  40  73 CALM      30.03F
MORRISTOWN     CLOUDY    46  39  76 CALM      30.03F
SOMERVILLE     CLOUDY    45  40  82 CALM      30.03S
SUSSEX         CLOUDY    47  43  86 CALM      30.04S
ANDOVER          N/A     46  41  82 CALM      30.03S
TRENTON        CLOUDY    44  41  89 N5        30.03F
MILLVILLE      CLOUDY    45  43  93 NE6       30.01S
ATLANTIC CITY  CLOUDY    47  45  93 E13       30.00F FOG
WRIGHTSTOWN    CLOUDY    45  43  93 N6        30.01F
TOMS RIVER     CLOUDY    45  39  81 NE7       30.03F
BELMAR         CLOUDY    45  43  93 N3        30.04F
$$

PAZ047>061-062-071-290800-
EASTERN PENNSYLVANIA

CITY           SKY/WX    TMP DP  RH WIND       PRES   REMARKS
PHILADELPHIA   CLOUDY    45  41  86 NE8       30.04S
ALLENTOWN      CLOUDY    46  41  82 CALM      30.03S
SCRANTON       CLOUDY    45  42  89 CALM      30.00F
$$

CTZ002-004>006-009-010-012-RIZ004-006-007-MAZ004-011-015-290800-
SOUTHERN NEW ENGLAND
 IN CT

CITY           SKY/WX    TMP DP  RH WIND       PRES   REMARKS
BRADLEY INTL   CLOUDY    46  34  62 S7        30.07S
HARTFORD       LGT RAIN  47  39  74 SE3       30.09R
DANBURY        CLOUDY    45  39  79 E5        30.06S
WTRBRY/OXFORD    N/A     43  37  81 CALM      30.07S
BRIDGEPORT     CLOUDY    49  39  68 E7        30.06F
MERIDEN        CLOUDY    46  41  82 CALM      30.08R
NEW HAVEN      CLOUDY    46  40  79 NE6       30.06F
CHESTER        MIX PCPN  43  41  93 CALM      30.07S
GROTON         LGT RAIN  44  42  93 E7        30.09R
WILLIMANTIC    LGT RAIN  45  37  73 CALM      30.09S

 IN RI

CITY           SKY/WX    TMP DP  RH WIND       PRES   REMARKS
PROVIDENCE     CLOUDY    45  34  65 CALM      30.10S
BLOCK ISLAND   LGT RAIN  45  38  76 E7        30.10R
WESTERLY       LGT RAIN  44  38  79 CALM      30.11R

 IN MA

CITY           SKY/WX    TMP DP  RH WIND       PRES   REMARKS
BOSTON         CLOUDY    44  34  67 SE6       30.12R
WORCESTER      PTCLDY    41  33  73 S3        30.07S
WESTFIELD      CLOUDY    46  36  68 CALM      30.08R
PROVINCETOWN   CLOUDY    43  35  73 CALM      30.13R
NANTUCKET      CLOUDY    45  34  65 E10       30.09S
$$

ANZ330-335-338-340-345-350-353-355-290800-
COASTAL MARINE OBSERVATIONS


STATION/POSITION TIME  SKY/WX   TEMP    WIND        PRES    VSBY  WAVE
                                AIR SEA DIR/SP/G                  HT/PER
                 (UTC)          (F)     (DEG/KT/KT) (MB)    (MI)  (FT/S)
NY HARB ENTRANCE 0550            47 51   90/  4/  6 1016.8          2/ 6
20S FIRE ISLAND  0550            47 49   80/  8/ 10 1016.9          3/ 5
GREAT SOUTH BAY  0600            49 58   70/ 10/ 10   N/A
23 SSW MONTAUK P 0650            46 47   90/ 14/ 16 1017.3          3/ 7
15 E BARNEGAT LI 0622               51                N/A           4/ 6
HUDSON CANYON    0550            48 49              1015.4          4/ 6
KINGS POINT      0600            49 53              1017.3
EXECUTION ROCKS  NOT AVBL
CENTRAL LI SOUND 0615            47      90/  6/  8   N/A           1
EASTERN LI SOUND 0600            47 47   90/  6/  8   N/A
ROBBINS REEF     0600            48     100/  5/  6 1016.7
$$


>>>>>>>>>>>>>>>>>>>>>>>>>>>> KEY <<<<<<<<<<<<<<<<<<<<<<<<<<<
>                                                          <
>     SKY/WX - SKY CONDITION/PRESENT WEATHER               <
>     TMP    - TEMPERATURE IN FAHRENHEIT                   <
>     DP     - DEWPOINT IN FAHRENHEIT                      <
>     RH     - RELATIVE HUMIDITY IN PERCENT                <
>     WIND   - DIRECTION AND SPEED IN MPH                  <
>     PRES   - MEAN SEA LEVEL PRESSURE IN INCHES OF HG     <
>     WCI    - WIND CHILL INDEX                            <
>     VSB    - VISIBILITY IN MILES                         <
>     HX     - HEAT INDEX                                  <
>     TC     - TEMPERATURE IN CELSIUS                      <
>     VRB    - VARIABLE WIND DIRECTION                     <
>                                                          <
>>>>>>>>>>>>>>>>>>>>>>>>>>>> KEY <<<<<<<<<<<<<<<<<<<<<<<<<<<





USA.gov is the U.S. government's official web portal to all federal, state and local government web resources and services.